Time,TemperatureF,DewpointF,PressureIn,WindDirection,WindDirectionDegrees,WindSpeedMPH,WindSpeedGustMPH,Humidity,HourlyPrecipIn,Conditions,Clouds,dailyrainin,SolarRadiationWatts/m^2,SoftwareType,DateUTC
2013-09-24 00:01:00,52.3,47.3,30.06,East,90,0.6,2.3,83,0.00,,,0.00,0.0,WeatherDisplay:10.37,2013-09-24 04:01:00,
2013-09-24 00:02:00,52.2,47.2,30.06,East,90,0.8,2.0,83,0.00,,,0.00,0.0,WeatherDisplay:10.37,2013-09-24 04:02:00,
2013-09-24 00:07:00,52.1,47.1,30.06,East,90,0.3,1.2,83,0.00,,,0.00,0.0,WeatherDisplay:10.37,2013-09-24 04:07:00,
2013-09-24 00:12:00,51.9,46.9,30.06,East,90,0.5,1.2,83,0.00,,,0.00,0.0,WeatherDisplay:10.37,2013-09-24 04:12:00,
2013-09-24 00:17:00,51.8,47.1,30.06,East,90,0.7,2.3,84,0.00,,,0.00,0.0,WeatherDisplay:10.37,2013-09-24 04:17:00,
2013-09-24 00:22:00,51.7,47.0,30.05,East,90,0.6,2.3,84,0.00,,,0.00,0.0,WeatherDisplay:10.37,2013-09-24 04:22:00,
2013-09-24 00:27:00,51.5,46.8,30.06,East,90,0.3,1.2,84,0.00,,,0.00,0.0,WeatherDisplay:10.37,2013-09-24 04:27:00,
2013-09-24 00:32:00,51.4,46.7,30.05,East,91,0.9,3.5,84,0.00,,,0.00,0.0,WeatherDisplay:10.37,2013-09-24 04:32:00,
2013-09-24 00:37:00,51.3,46.9,30.06,East,91,0.1,2.3,85,0.00,,,0.00,0.0,WeatherDisplay:10.37,2013-09-24 04:37:00,
2013-09-24 00:42:00,51.2,46.8,30.06,East,91,0.4,2.3,85,0.00,,,0.00,0.0,WeatherDisplay:10.37,2013-09-24 04:42:00,
2013-09-24 00:47:00,51.2,46.8,30.05,East,91,0.0,1.2,85,0.00,,,0.00,0.0,WeatherDisplay:10.37,2013-09-24 04:47:00,
2013-09-24 00:52:00,51.1,46.7,30.05,East,91,0.1,1.2,85,0.00,,,0.00,0.0,WeatherDisplay:10.37,2013-09-24 04:52:00,
2013-09-24 00:57:00,51.0,46.6,30.05,East,91,0.3,2.3,85,0.00,,,0.00,0.0,WeatherDisplay:10.37,2013-09-24 04:57:00,
2013-09-24 01:05:00,50.8,46.8,30.05,East,91,0.9,3.5,86,0.00,,,0.00,0.0,WeatherDisplay:10.37,2013-09-24 05:05:00,
2013-09-24 01:10:00,50.6,46.6,30.05,East,91,0.7,3.0,86,0.00,,,0.00,0.0,WeatherDisplay:10.37,2013-09-24 05:10:00,
2013-09-24 01:15:00,50.5,46.5,30.05,East,91,0.1,1.2,86,0.00,,,0.00,0.0,WeatherDisplay:10.37,2013-09-24 05:15:00,
2013-09-24 01:20:00,50.3,46.6,30.05,East,91,0.4,2.0,87,0.00,,,0.00,0.0,WeatherDisplay:10.37,2013-09-24 05:20:00,
2013-09-24 01:25:00,50.2,46.5,30.05,East,91,0.2,2.0,87,0.00,,,0.00,0.0,WeatherDisplay:10.37,2013-09-24 05:25:00,
2013-09-24 01:30:00,50.0,46.3,30.05,East,91,0.3,2.3,87,0.00,,,0.00,0.0,WeatherDisplay:10.37,2013-09-24 05:30:00,
2013-09-24 01:35:00,50.0,46.6,30.05,East,91,0.6,3.5,88,0.00,,,0.00,0.0,WeatherDisplay:10.37,2013-09-24 05:35:00,
2013-09-24 01:40:00,49.9,46.5,30.04,East,91,0.5,2.3,88,0.00,,,0.00,0.0,WeatherDisplay:10.37,2013-09-24 05:40:00,
2013-09-24 01:45:00,49.8,46.4,30.04,East,91,0.7,2.3,88,0.00,,,0.00,0.0,WeatherDisplay:10.37,2013-09-24 05:45:00,
2013-09-24 01:50:00,49.7,46.3,30.04,East,91,0.4,2.3,88,0.00,,,0.00,0.0,WeatherDisplay:10.37,2013-09-24 05:50:00,
2013-09-24 01:55:00,49.7,46.3,30.04,East,91,0.1,2.3,88,0.00,,,0.00,0.0,WeatherDisplay:10.37,2013-09-24 05:55:00,
2013-09-24 02:00:00,49.6,46.2,30.05,East,91,0.9,1.2,88,0.00,,,0.00,0.0,WeatherDisplay:10.37,2013-09-24 06:00:00,
2013-09-24 02:05:00,49.5,46.1,30.04,East,91,0.7,2.3,88,0.00,,,0.00,0.0,WeatherDisplay:10.37,2013-09-24 06:05:00,
2013-09-24 02:10:00,49.4,46.0,30.05,East,91,0.1,0.0,88,0.00,,,0.00,0.0,WeatherDisplay:10.37,2013-09-24 06:10:00,
2013-09-24 02:15:00,49.3,45.9,30.05,East,91,0.0,1.2,88,0.00,,,0.00,0.0,WeatherDisplay:10.37,2013-09-24 06:15:00,
2013-09-24 02:21:00,49.2,46.1,30.05,East,91,0.0,0.0,89,0.00,,,0.00,0.0,WeatherDisplay:10.37,2013-09-24 06:21:00,
2013-09-24 02:26:00,49.1,46.0,30.05,East,91,0.0,1.2,89,0.00,,,0.00,0.0,WeatherDisplay:10.37,2013-09-24 06:26:00,
2013-09-24 02:31:00,48.9,45.8,30.05,East,91,0.2,1.2,89,0.00,,,0.00,0.0,WeatherDisplay:10.37,2013-09-24 06:31:00,
2013-09-24 02:36:00,48.8,45.7,30.05,East,91,0.2,1.2,89,0.00,,,0.00,0.0,WeatherDisplay:10.37,2013-09-24 06:36:00,
2013-09-24 02:41:00,48.6,45.8,30.05,East,91,0.1,2.3,90,0.00,,,0.00,0.0,WeatherDisplay:10.37,2013-09-24 06:41:00,
2013-09-24 02:46:00,48.5,45.7,30.05,East,91,0.2,1.2,90,0.00,,,0.00,0.0,WeatherDisplay:10.37,2013-09-24 06:46:00,
2013-09-24 02:51:00,48.4,45.6,30.05,East,91,0.2,2.3,90,0.00,,,0.00,0.0,WeatherDisplay:10.37,2013-09-24 06:51:00,
2013-09-24 02:56:00,48.2,45.4,30.05,East,91,0.1,1.2,90,0.00,,,0.00,0.0,WeatherDisplay:10.37,2013-09-24 06:56:00,
2013-09-24 03:01:00,48.1,45.3,30.05,East,91,0.1,1.2,90,0.00,,,0.00,0.0,WeatherDisplay:10.37,2013-09-24 07:01:00,
2013-09-24 03:06:00,47.9,45.4,30.05,East,91,0.0,0.0,91,0.00,,,0.00,0.0,WeatherDisplay:10.37,2013-09-24 07:06:00,
2013-09-24 03:11:00,47.8,45.3,30.05,East,91,0.0,0.0,91,0.00,,,0.00,0.0,WeatherDisplay:10.37,2013-09-24 07:11:00,
2013-09-24 03:16:00,47.7,45.2,30.05,East,91,0.0,0.0,91,0.00,,,0.00,0.0,WeatherDisplay:10.37,2013-09-24 07:16:00,
2013-09-24 03:21:00,47.5,45.0,30.05,East,91,0.0,0.0,91,0.00,,,0.00,0.0,WeatherDisplay:10.37,2013-09-24 07:21:00,
2013-09-24 03:26:00,47.3,44.8,30.05,East,91,0.0,1.2,91,0.00,,,0.00,0.0,WeatherDisplay:10.37,2013-09-24 07:26:00,
2013-09-24 03:31:00,47.2,45.0,30.05,East,91,0.0,0.0,92,0.00,,,0.00,0.0,WeatherDisplay:10.37,2013-09-24 07:31:00,
2013-09-24 03:36:00,47.1,44.9,30.05,East,91,0.0,0.0,92,0.00,,,0.00,0.0,WeatherDisplay:10.37,2013-09-24 07:36:00,
2013-09-24 03:41:00,47.0,44.8,30.05,East,91,0.0,0.0,92,0.00,,,0.00,0.0,WeatherDisplay:10.37,2013-09-24 07:41:00,
2013-09-24 03:46:00,47.0,44.8,30.05,East,91,0.0,1.2,92,0.00,,,0.00,0.0,WeatherDisplay:10.37,2013-09-24 07:46:00,
2013-09-24 03:51:00,46.9,45.0,30.05,East,91,0.0,0.0,93,0.00,,,0.00,0.0,WeatherDisplay:10.37,2013-09-24 07:51:00,
2013-09-24 03:56:00,46.8,44.9,30.05,East,91,0.0,1.2,93,0.00,,,0.00,0.0,WeatherDisplay:10.37,2013-09-24 07:56:00,
2013-09-24 04:01:00,46.7,44.8,30.05,East,91,0.0,0.0,93,0.00,,,0.00,0.0,WeatherDisplay:10.37,2013-09-24 08:01:00,
2013-09-24 04:06:00,46.6,44.7,30.05,East,91,0.1,1.2,93,0.00,,,0.00,0.0,WeatherDisplay:10.37,2013-09-24 08:06:00,
2013-09-24 04:11:00,46.6,44.7,30.05,East,91,0.2,1.2,93,0.00,,,0.00,0.0,WeatherDisplay:10.37,2013-09-24 08:11:00,
2013-09-24 04:16:00,46.6,44.7,30.05,East,91,0.0,1.2,93,0.00,,,0.00,0.0,WeatherDisplay:10.37,2013-09-24 08:16:00,
2013-09-24 04:21:00,46.6,44.7,30.05,East,91,0.0,0.0,93,0.00,,,0.00,0.0,WeatherDisplay:10.37,2013-09-24 08:21:00,
2013-09-24 04:26:00,46.5,44.6,30.05,East,91,0.0,0.0,93,0.00,,,0.00,0.0,WeatherDisplay:10.37,2013-09-24 08:26:00,
2013-09-24 04:31:00,46.4,44.5,30.05,East,91,0.0,0.0,93,0.00,,,0.00,0.0,WeatherDisplay:10.37,2013-09-24 08:31:00,
2013-09-24 04:36:00,46.3,44.4,30.05,East,91,0.0,0.0,93,0.00,,,0.00,0.0,WeatherDisplay:10.37,2013-09-24 08:36:00,
2013-09-24 04:41:00,46.1,44.2,30.05,East,91,0.0,0.0,93,0.00,,,0.00,0.0,WeatherDisplay:10.37,2013-09-24 08:41:00,
2013-09-24 04:46:00,46.0,44.1,30.05,East,91,0.0,0.0,93,0.00,,,0.00,0.0,WeatherDisplay:10.37,2013-09-24 08:46:00,
2013-09-24 04:51:00,46.0,44.1,30.05,East,91,0.0,0.0,93,0.00,,,0.00,0.0,WeatherDisplay:10.37,2013-09-24 08:51:00,
2013-09-24 04:56:00,45.9,44.0,30.05,East,91,0.0,0.0,93,0.00,,,0.00,0.0,WeatherDisplay:10.37,2013-09-24 08:56:00,
2013-09-24 05:01:00,45.8,43.9,30.05,East,91,0.0,0.0,93,0.00,,,0.00,0.0,WeatherDisplay:10.37,2013-09-24 09:01:00,
2013-09-24 05:07:00,45.7,44.1,30.05,East,91,0.0,0.0,94,0.00,,,0.00,0.0,WeatherDisplay:10.37,2013-09-24 09:07:00,
2013-09-24 05:12:00,45.6,44.0,30.05,East,91,0.0,0.0,94,0.00,,,0.00,0.0,WeatherDisplay:10.37,2013-09-24 09:12:00,
2013-09-24 05:17:00,45.5,43.9,30.05,East,91,0.0,1.2,94,0.00,,,0.00,0.0,WeatherDisplay:10.37,2013-09-24 09:17:00,
2013-09-24 05:22:00,45.5,43.9,30.05,East,91,0.0,0.0,94,0.00,,,0.00,0.0,WeatherDisplay:10.37,2013-09-24 09:22:00,
2013-09-24 05:27:00,45.4,43.8,30.05,East,91,0.0,0.0,94,0.00,,,0.00,0.0,WeatherDisplay:10.37,2013-09-24 09:27:00,
2013-09-24 05:32:00,45.4,43.8,30.06,East,91,0.0,0.0,94,0.00,,,0.00,0.0,WeatherDisplay:10.37,2013-09-24 09:32:00,
2013-09-24 05:37:00,45.4,43.8,30.06,East,91,0.0,0.0,94,0.00,,,0.00,0.0,WeatherDisplay:10.37,2013-09-24 09:37:00,
2013-09-24 05:42:00,45.3,43.7,30.06,East,91,0.1,1.2,94,0.00,,,0.00,0.0,WeatherDisplay:10.37,2013-09-24 09:42:00,
2013-09-24 05:47:00,45.2,43.6,30.06,East,91,0.0,0.0,94,0.00,,,0.00,0.0,WeatherDisplay:10.37,2013-09-24 09:47:00,
2013-09-24 05:52:00,45.2,43.6,30.06,East,91,0.0,0.0,94,0.00,,,0.00,0.0,WeatherDisplay:10.37,2013-09-24 09:52:00,
2013-09-24 05:57:00,45.1,43.5,30.06,East,91,0.0,0.0,94,0.00,,,0.00,0.0,WeatherDisplay:10.37,2013-09-24 09:57:00,
2013-09-24 06:02:00,45.0,43.4,30.06,East,91,0.0,0.0,94,0.00,,,0.00,0.0,WeatherDisplay:10.37,2013-09-24 10:02:00,
2013-09-24 06:07:00,44.9,43.3,30.06,East,91,0.0,0.0,94,0.00,,,0.00,0.0,WeatherDisplay:10.37,2013-09-24 10:07:00,
2013-09-24 06:12:00,44.8,43.2,30.07,East,91,0.0,0.0,94,0.00,,,0.00,0.0,WeatherDisplay:10.37,2013-09-24 10:12:00,
2013-09-24 06:17:00,44.7,43.1,30.07,East,91,1.7,2.3,94,0.00,,,0.00,0.0,WeatherDisplay:10.37,2013-09-24 10:17:00,
2013-09-24 06:22:00,44.6,43.0,30.07,East,91,0.0,0.0,94,0.00,,,0.00,0.0,WeatherDisplay:10.37,2013-09-24 10:22:00,
2013-09-24 06:27:00,44.5,42.9,30.06,East,91,0.0,0.0,94,0.00,,,0.00,0.0,WeatherDisplay:10.37,2013-09-24 10:27:00,
2013-09-24 06:32:00,44.5,42.9,30.07,East,91,0.0,0.0,94,0.00,,,0.00,0.0,WeatherDisplay:10.37,2013-09-24 10:32:00,
2013-09-24 06:37:00,44.3,42.7,30.07,East,91,0.0,0.0,94,0.00,,,0.00,0.0,WeatherDisplay:10.37,2013-09-24 10:37:00,
2013-09-24 06:42:00,44.2,42.6,30.07,East,91,0.0,0.0,94,0.00,,,0.00,0.0,WeatherDisplay:10.37,2013-09-24 10:42:00,
2013-09-24 06:47:00,44.1,42.5,30.07,East,91,0.0,0.0,94,0.00,,,0.00,0.0,WeatherDisplay:10.37,2013-09-24 10:47:00,
2013-09-24 06:52:00,44.0,42.4,30.07,East,91,0.0,0.0,94,0.00,,,0.00,0.0,WeatherDisplay:10.37,2013-09-24 10:52:00,
2013-09-24 06:57:00,43.9,42.3,30.07,East,91,0.0,0.0,94,0.00,,,0.00,0.0,WeatherDisplay:10.37,2013-09-24 10:57:00,
2013-09-24 07:02:00,43.9,42.6,30.07,East,91,0.0,0.0,95,0.00,,,0.00,0.0,WeatherDisplay:10.37,2013-09-24 11:02:00,
2013-09-24 07:07:00,43.9,42.6,30.07,East,91,0.0,0.0,95,0.00,,,0.00,0.0,WeatherDisplay:10.37,2013-09-24 11:07:00,
2013-09-24 07:12:00,43.9,42.6,30.07,East,91,0.0,0.0,95,0.00,,,0.00,0.0,WeatherDisplay:10.37,2013-09-24 11:12:00,
2013-09-24 07:17:00,43.8,42.5,30.08,East,91,0.0,0.0,95,0.00,,,0.00,0.0,WeatherDisplay:10.37,2013-09-24 11:17:00,
2013-09-24 07:22:00,43.7,42.1,30.07,East,91,0.0,0.0,94,0.00,,,0.00,0.0,WeatherDisplay:10.37,2013-09-24 11:22:00,
2013-09-24 07:27:00,43.6,42.3,30.07,East,91,0.0,0.0,95,0.00,,,0.00,0.0,WeatherDisplay:10.37,2013-09-24 11:27:00,
2013-09-24 07:32:00,43.6,42.3,30.08,East,91,0.0,0.0,95,0.00,,,0.00,0.0,WeatherDisplay:10.37,2013-09-24 11:32:00,
2013-09-24 07:37:00,43.5,42.2,30.08,East,91,0.0,0.0,95,0.00,BKN,,0.00,7.0,WeatherDisplay:10.37,2013-09-24 11:37:00,
2013-09-24 07:42:00,43.4,42.1,30.08,East,91,0.0,0.0,95,0.00,SCT,,0.00,12.0,WeatherDisplay:10.37,2013-09-24 11:42:00,
2013-09-24 07:47:00,43.3,42.0,30.08,East,91,0.0,0.0,95,0.00,SCT,,0.00,16.0,WeatherDisplay:10.37,2013-09-24 11:47:00,
2013-09-24 07:52:00,43.2,41.9,30.08,East,91,0.0,0.0,95,0.00,SCT,,0.00,19.0,WeatherDisplay:10.37,2013-09-24 11:52:00,
2013-09-24 07:57:00,43.4,42.1,30.08,East,91,0.0,0.0,95,0.00,BKN,,0.00,21.0,WeatherDisplay:10.37,2013-09-24 11:57:00,
2013-09-24 08:02:00,43.7,42.4,30.07,East,91,0.0,1.2,95,0.00,BKN,,0.00,25.0,WeatherDisplay:10.37,2013-09-24 12:02:00,
2013-09-24 08:07:00,44.1,43.0,30.07,East,91,0.1,1.2,96,0.00,BKN,,0.00,26.0,WeatherDisplay:10.37,2013-09-24 12:07:00,
2013-09-24 08:12:00,44.6,43.5,30.07,East,91,0.4,1.2,96,0.00,BKN,,0.00,28.0,WeatherDisplay:10.37,2013-09-24 12:12:00,
2013-09-24 08:17:00,45.1,44.0,30.07,East,91,0.4,1.2,96,0.00,BKN,,0.00,28.0,WeatherDisplay:10.37,2013-09-24 12:17:00,
2013-09-24 08:23:00,45.6,44.5,30.07,East,91,0.4,2.3,96,0.00,BKN,,0.00,30.0,WeatherDisplay:10.37,2013-09-24 12:23:00,
2013-09-24 08:28:00,46.1,45.0,30.07,East,91,0.8,3.5,96,0.00,BKN,,0.00,32.0,WeatherDisplay:10.37,2013-09-24 12:28:00,
2013-09-24 08:33:00,46.5,45.4,30.07,East,91,1.4,3.5,96,0.00,BKN,,0.00,33.0,WeatherDisplay:10.37,2013-09-24 12:33:00,
2013-09-24 08:38:00,46.9,45.8,30.07,East,90,0.9,3.5,96,0.00,BKN,,0.00,33.0,WeatherDisplay:10.37,2013-09-24 12:38:00,
2013-09-24 08:43:00,47.3,46.2,30.07,East,90,0.2,5.8,96,0.00,BKN,,0.00,35.0,WeatherDisplay:10.37,2013-09-24 12:43:00,
2013-09-24 08:48:00,47.7,46.6,30.07,East,98,3.6,5.8,96,0.00,BKN,,0.00,37.0,WeatherDisplay:10.37,2013-09-24 12:48:00,
2013-09-24 08:53:00,48.0,46.6,30.06,ESE,107,1.7,5.8,95,0.00,BKN,,0.00,37.0,WeatherDisplay:10.37,2013-09-24 12:53:00,
2013-09-24 08:58:00,48.3,46.7,30.07,ESE,109,1.8,3.5,94,0.00,BKN,,0.00,39.0,WeatherDisplay:10.37,2013-09-24 12:58:00,
2013-09-24 09:03:00,48.7,46.8,30.07,ESE,114,1.0,3.5,93,0.00,BKN,,0.00,40.0,WeatherDisplay:10.37,2013-09-24 13:03:00,
2013-09-24 09:08:00,49.0,46.8,30.07,East,101,4.1,6.9,92,0.00,BKN,,0.00,42.0,WeatherDisplay:10.37,2013-09-24 13:08:00,
2013-09-24 09:13:00,49.4,47.2,30.07,East,101,1.2,4.0,92,0.00,BKN,,0.00,44.0,WeatherDisplay:10.37,2013-09-24 13:13:00,
2013-09-24 09:18:00,49.7,47.2,30.07,East,91,4.8,5.8,91,0.00,BKN,,0.00,44.0,WeatherDisplay:10.37,2013-09-24 13:18:00,
2013-09-24 09:23:00,50.1,47.6,30.07,ESE,111,2.0,5.8,91,0.00,BKN,,0.00,47.0,WeatherDisplay:10.37,2013-09-24 13:23:00,
2013-09-24 09:28:00,50.5,47.7,30.06,ESE,103,1.1,5.8,90,0.00,BKN,,0.00,49.0,WeatherDisplay:10.37,2013-09-24 13:28:00,
2013-09-24 09:33:00,51.1,48.3,30.06,ESE,105,1.9,3.5,90,0.00,BKN,,0.00,51.0,WeatherDisplay:10.37,2013-09-24 13:33:00,
2013-09-24 09:38:00,51.5,48.4,30.06,ESE,109,2.4,5.8,89,0.00,BKN,,0.00,53.0,WeatherDisplay:10.37,2013-09-24 13:38:00,
2013-09-24 09:43:00,51.8,48.4,30.06,ESE,107,3.1,6.9,88,0.00,BKN,,0.00,54.0,WeatherDisplay:10.37,2013-09-24 13:43:00,
2013-09-24 09:48:00,52.1,48.3,30.06,ESE,113,2.6,5.8,87,0.00,BKN,,0.00,56.0,WeatherDisplay:10.37,2013-09-24 13:48:00,
2013-09-24 09:53:00,52.6,49.1,30.06,ESE,104,2.2,3.5,88,0.00,BKN,,0.00,60.0,WeatherDisplay:10.37,2013-09-24 13:53:00,
2013-09-24 09:58:00,53.1,49.0,30.06,ESE,105,3.0,6.0,86,0.00,BKN,,0.00,62.0,WeatherDisplay:10.37,2013-09-24 13:58:00,
2013-09-24 10:03:00,53.5,49.1,30.06,East,101,1.1,6.9,85,0.00,BKN,,0.00,62.0,WeatherDisplay:10.37,2013-09-24 14:03:00,
2013-09-24 10:08:00,54.0,49.6,30.06,ESE,115,1.0,6.0,85,0.00,BKN,,0.00,65.0,WeatherDisplay:10.37,2013-09-24 14:08:00,
2013-09-24 10:13:00,54.5,49.8,30.06,ESE,115,1.1,3.0,84,0.00,BKN,,0.00,65.0,WeatherDisplay:10.37,2013-09-24 14:13:00,
2013-09-24 10:18:00,55.0,49.9,30.06,ESE,104,3.3,3.3,83,0.00,BKN,,0.00,67.0,WeatherDisplay:10.37,2013-09-24 14:18:00,
2013-09-24 10:23:00,55.5,50.1,30.06,ESE,116,2.9,5.8,82,0.00,BKN,,0.00,67.0,WeatherDisplay:10.37,2013-09-24 14:23:00,
2013-09-24 10:28:00,55.9,50.5,30.06,ESE,102,3.8,5.8,82,0.00,BKN,,0.00,69.0,WeatherDisplay:10.37,2013-09-24 14:28:00,
2013-09-24 10:33:00,56.3,50.5,30.06,ENE,67,3.2,6.9,81,0.00,BKN,,0.00,69.0,WeatherDisplay:10.37,2013-09-24 14:33:00,
2013-09-24 10:38:00,56.7,50.3,30.05,East,90,4.4,8.1,79,0.00,BKN,,0.00,70.0,WeatherDisplay:10.37,2013-09-24 14:38:00,
2013-09-24 10:43:00,57.0,50.5,30.05,ESE,109,3.5,5.8,79,0.00,BKN,,0.00,72.0,WeatherDisplay:10.37,2013-09-24 14:43:00,
2013-09-24 10:48:00,57.4,50.6,30.05,ESE,120,3.3,7.0,78,0.00,BKN,,0.00,74.0,WeatherDisplay:10.37,2013-09-24 14:48:00,
2013-09-24 10:54:00,57.9,50.7,30.05,ESE,115,1.3,3.5,77,0.00,BKN,,0.00,76.0,WeatherDisplay:10.37,2013-09-24 14:54:00,
2013-09-24 10:59:00,58.4,51.2,30.05,ESE,118,0.5,6.9,77,0.00,BKN,,0.00,77.0,WeatherDisplay:10.37,2013-09-24 14:59:00,
2013-09-24 11:04:00,58.9,51.7,30.05,East,98,0.6,2.3,77,0.00,BKN,,0.00,77.0,WeatherDisplay:10.37,2013-09-24 15:04:00,
2013-09-24 11:09:00,59.3,51.4,30.05,ESE,108,2.4,5.8,75,0.00,BKN,,0.00,79.0,WeatherDisplay:10.37,2013-09-24 15:09:00,
2013-09-24 11:14:00,59.6,51.3,30.05,ESE,106,1.6,5.8,74,0.00,BKN,,0.00,81.0,WeatherDisplay:10.37,2013-09-24 15:14:00,
2013-09-24 11:19:00,59.9,51.6,30.05,ESE,121,2.9,5.8,74,0.00,BKN,,0.00,81.0,WeatherDisplay:10.37,2013-09-24 15:19:00,
2013-09-24 11:24:00,60.3,51.2,30.04,NE,51,2.9,5.8,72,0.00,BKN,,0.00,79.0,WeatherDisplay:10.37,2013-09-24 15:24:00,
2013-09-24 11:29:00,60.5,51.4,30.04,East,82,3.6,10.4,72,0.00,BKN,,0.00,79.0,WeatherDisplay:10.37,2013-09-24 15:29:00,
2013-09-24 11:34:00,60.9,51.0,30.04,ESE,111,2.4,3.5,70,0.00,BKN,,0.00,81.0,WeatherDisplay:10.37,2013-09-24 15:34:00,
2013-09-24 11:39:00,61.2,51.7,30.04,ESE,109,2.1,3.5,71,0.00,BKN,,0.00,81.0,WeatherDisplay:10.37,2013-09-24 15:39:00,
2013-09-24 11:44:00,61.5,51.2,30.03,East,92,3.5,6.9,69,0.00,BKN,,0.00,79.0,WeatherDisplay:10.37,2013-09-24 15:44:00,
2013-09-24 11:49:00,61.8,51.9,30.03,ESE,108,1.0,3.5,70,0.00,BKN,,0.00,84.0,WeatherDisplay:10.37,2013-09-24 15:49:00,
2013-09-24 11:54:00,62.2,52.3,30.03,ESE,121,1.8,3.5,70,0.00,BKN,,0.00,663.0,WeatherDisplay:10.37,2013-09-24 15:54:00,
2013-09-24 11:59:00,62.7,52.4,30.03,ENE,61,5.4,8.1,69,0.00,SCT,,0.00,671.0,WeatherDisplay:10.37,2013-09-24 15:59:00,
2013-09-24 12:04:00,62.9,50.5,30.02,East,79,2.5,5.0,64,0.00,CLR,,0.00,675.0,WeatherDisplay:10.37,2013-09-24 16:04:00,
2013-09-24 12:09:00,63.5,51.5,30.02,East,97,2.4,4.0,65,0.00,CLR,,0.00,687.0,WeatherDisplay:10.37,2013-09-24 16:09:00,
2013-09-24 12:14:00,64.1,51.7,30.02,ENE,74,1.6,4.6,64,0.00,CLR,,0.00,693.0,WeatherDisplay:10.37,2013-09-24 16:14:00,
2013-09-24 12:19:00,65.0,52.9,30.02,ESE,105,1.0,3.5,65,0.00,CLR,,0.00,698.0,WeatherDisplay:10.37,2013-09-24 16:19:00,
2013-09-24 12:24:00,65.4,52.9,30.02,ESE,103,0.8,2.3,64,0.00,CLR,,0.00,705.0,WeatherDisplay:10.37,2013-09-24 16:24:00,
2013-09-24 12:29:00,65.2,52.3,30.02,ESE,112,2.7,3.5,63,0.00,CLR,,0.00,710.0,WeatherDisplay:10.37,2013-09-24 16:29:00,
2013-09-24 12:34:00,65.9,52.5,30.01,ESE,117,1.3,3.5,62,0.00,CLR,,0.00,715.0,WeatherDisplay:10.37,2013-09-24 16:34:00,
2013-09-24 12:39:00,65.8,52.4,30.01,East,101,3.1,5.8,62,0.00,CLR,,0.00,719.0,WeatherDisplay:10.37,2013-09-24 16:39:00,
2013-09-24 12:44:00,65.8,54.1,30.00,ESE,109,1.7,4.0,66,0.00,CLR,,0.00,722.0,WeatherDisplay:10.37,2013-09-24 16:44:00,
2013-09-24 12:49:00,66.3,52.0,30.00,East,94,1.5,3.5,60,0.00,CLR,,0.00,724.0,WeatherDisplay:10.37,2013-09-24 16:49:00,
2013-09-24 12:54:00,66.6,53.2,30.00,ESE,103,2.7,3.5,62,0.00,CLR,,0.00,728.0,WeatherDisplay:10.37,2013-09-24 16:54:00,
2013-09-24 13:00:00,66.7,52.8,30.00,East,101,0.3,1.2,61,0.00,CLR,,0.00,733.0,WeatherDisplay:10.37,2013-09-24 17:00:00,
2013-09-24 13:05:00,67.1,51.8,30.00,East,95,0.0,1.2,58,0.00,CLR,,0.00,735.0,WeatherDisplay:10.37,2013-09-24 17:05:00,
2013-09-24 13:10:00,67.2,53.3,30.00,ESE,103,2.9,3.5,61,0.00,CLR,,0.00,735.0,WeatherDisplay:10.37,2013-09-24 17:10:00,
2013-09-24 13:15:00,66.9,52.1,30.00,ENE,69,1.5,3.5,59,0.00,CLR,,0.00,735.0,WeatherDisplay:10.37,2013-09-24 17:15:00,
2013-09-24 13:20:00,67.4,53.9,29.99,East,92,1.3,5.8,62,0.00,CLR,,0.00,740.0,WeatherDisplay:10.37,2013-09-24 17:20:00,
2013-09-24 13:25:00,67.7,54.2,29.99,East,96,1.9,4.6,62,0.00,CLR,,0.00,737.0,WeatherDisplay:10.37,2013-09-24 17:25:00,
2013-09-24 13:30:00,68.4,54.9,29.99,East,92,0.4,2.0,62,0.00,CLR,,0.00,737.0,WeatherDisplay:10.37,2013-09-24 17:30:00,
2013-09-24 13:35:00,68.5,54.1,29.99,East,79,0.0,3.5,60,0.00,CLR,,0.00,735.0,WeatherDisplay:10.37,2013-09-24 17:35:00,
2013-09-24 13:40:00,68.7,55.6,29.98,East,101,4.3,4.3,63,0.00,CLR,,0.00,729.0,WeatherDisplay:10.37,2013-09-24 17:40:00,
2013-09-24 13:45:00,68.7,54.7,29.98,East,80,3.2,4.0,61,0.00,CLR,,0.00,724.0,WeatherDisplay:10.37,2013-09-24 17:45:00,
2013-09-24 13:50:00,69.2,54.3,29.98,ENE,62,3.8,6.9,59,0.00,CLR,,0.00,726.0,WeatherDisplay:10.37,2013-09-24 17:50:00,
2013-09-24 13:55:00,69.5,54.1,29.97,East,82,0.1,2.3,58,0.00,CLR,,0.00,726.0,WeatherDisplay:10.37,2013-09-24 17:55:00,
2013-09-24 14:00:00,69.7,54.7,29.98,ESE,114,2.3,5.8,59,0.00,CLR,,0.00,722.0,WeatherDisplay:10.37,2013-09-24 18:00:00,
2013-09-24 14:05:00,69.5,54.1,29.97,ESE,102,0.2,3.5,58,0.00,CLR,,0.00,715.0,WeatherDisplay:10.37,2013-09-24 18:05:00,
2013-09-24 14:10:00,69.4,54.9,29.97,ESE,116,2.3,6.9,60,0.00,CLR,,0.00,712.0,WeatherDisplay:10.37,2013-09-24 18:10:00,
2013-09-24 14:15:00,69.7,55.6,29.97,ESE,108,0.9,3.5,61,0.00,CLR,,0.00,705.0,WeatherDisplay:10.37,2013-09-24 18:15:00,
2013-09-24 14:20:00,70.1,55.1,29.97,ESE,107,0.8,3.0,59,0.00,CLR,,0.00,703.0,WeatherDisplay:10.37,2013-09-24 18:20:00,
2013-09-24 14:25:00,69.9,54.4,29.97,ESE,108,0.0,1.2,58,0.00,CLR,,0.00,696.0,WeatherDisplay:10.37,2013-09-24 18:25:00,
2013-09-24 14:30:00,70.0,56.4,29.96,ESE,102,2.6,3.5,62,0.00,CLR,,0.00,687.0,WeatherDisplay:10.37,2013-09-24 18:30:00,
2013-09-24 14:35:00,69.8,54.8,29.96,East,98,0.7,2.3,59,0.00,CLR,,0.00,636.0,WeatherDisplay:10.37,2013-09-24 18:35:00,
2013-09-24 14:40:00,69.7,55.6,29.96,East,95,2.0,3.5,61,0.00,CLR,,0.00,146.0,WeatherDisplay:10.37,2013-09-24 18:40:00,
2013-09-24 14:45:00,69.7,55.2,29.96,East,97,0.3,1.2,60,0.00,SCT,,0.00,60.0,WeatherDisplay:10.37,2013-09-24 18:45:00,
2013-09-24 14:50:00,69.7,55.2,29.95,East,98,0.1,1.2,60,0.00,BKN,,0.00,91.0,WeatherDisplay:10.37,2013-09-24 18:50:00,
2013-09-24 14:55:00,69.6,54.6,29.95,East,88,0.0,1.2,59,0.00,BKN,,0.00,51.0,WeatherDisplay:10.37,2013-09-24 18:55:00,
2013-09-24 15:00:00,69.6,55.6,29.95,ENE,76,0.5,6.9,61,0.00,BKN,,0.00,49.0,WeatherDisplay:10.37,2013-09-24 19:00:00,
2013-09-24 15:05:00,69.6,55.6,29.95,East,83,0.8,5.8,61,0.00,BKN,,0.00,49.0,WeatherDisplay:10.37,2013-09-24 19:05:00,
2013-09-24 15:10:00,69.5,55.9,29.94,East,83,0.9,2.0,62,0.00,BKN,,0.00,47.0,WeatherDisplay:10.37,2013-09-24 19:10:00,
2013-09-24 15:15:00,69.4,55.8,29.94,East,86,0.8,3.5,62,0.00,BKN,,0.00,47.0,WeatherDisplay:10.37,2013-09-24 19:15:00,
2013-09-24 15:20:00,69.4,55.8,29.93,East,94,1.6,4.0,62,0.00,BKN,,0.00,47.0,WeatherDisplay:10.37,2013-09-24 19:20:00,
2013-09-24 15:25:00,69.7,55.6,29.93,SE,127,1.1,3.5,61,0.00,BKN,,0.00,47.0,WeatherDisplay:10.37,2013-09-24 19:25:00,
2013-09-24 15:30:00,69.8,56.2,29.93,SE,127,0.8,3.5,62,0.00,BKN,,0.00,46.0,WeatherDisplay:10.37,2013-09-24 19:30:00,
2013-09-24 15:35:00,69.9,56.3,29.93,East,88,1.3,5.8,62,0.00,BKN,,0.00,46.0,WeatherDisplay:10.37,2013-09-24 19:35:00,
2013-09-24 15:40:00,70.0,56.4,29.93,ESE,104,3.0,6.0,62,0.00,BKN,,0.00,46.0,WeatherDisplay:10.37,2013-09-24 19:40:00,
2013-09-24 15:45:00,70.0,56.4,29.93,East,101,0.2,0.0,62,0.00,BKN,,0.00,44.0,WeatherDisplay:10.37,2013-09-24 19:45:00,
2013-09-24 15:50:00,70.0,55.9,29.92,East,101,0.2,1.2,61,0.00,BKN,,0.00,42.0,WeatherDisplay:10.37,2013-09-24 19:50:00,
2013-09-24 15:55:00,70.0,56.4,29.92,ESE,104,0.4,2.3,62,0.00,BKN,,0.00,42.0,WeatherDisplay:10.37,2013-09-24 19:55:00,
2013-09-24 16:00:00,70.1,56.9,29.91,ESE,111,0.5,3.5,63,0.00,BKN,,0.00,40.0,WeatherDisplay:10.37,2013-09-24 20:00:00,
2013-09-24 16:05:00,70.1,56.9,29.91,ESE,113,1.2,2.3,63,0.00,BKN,,0.00,39.0,WeatherDisplay:10.37,2013-09-24 20:05:00,
2013-09-24 16:10:00,70.2,56.1,29.91,ESE,121,0.1,1.2,61,0.00,BKN,,0.00,37.0,WeatherDisplay:10.37,2013-09-24 20:10:00,
2013-09-24 16:15:00,70.1,56.0,29.92,ESE,121,1.7,3.5,61,0.00,BKN,,0.00,35.0,WeatherDisplay:10.37,2013-09-24 20:15:00,
2013-09-24 16:20:00,69.9,56.7,29.92,ESE,116,1.0,2.0,63,0.00,BKN,,0.00,33.0,WeatherDisplay:10.37,2013-09-24 20:20:00,
2013-09-24 16:25:00,69.9,56.3,29.91,ESE,116,0.0,1.2,62,0.00,BKN,,0.00,30.0,WeatherDisplay:10.37,2013-09-24 20:25:00,
2013-09-24 16:30:00,70.1,56.5,29.91,ESE,112,2.0,3.5,62,0.00,BKN,,0.00,30.0,WeatherDisplay:10.37,2013-09-24 20:30:00,
2013-09-24 16:35:00,70.2,56.6,29.91,East,90,0.1,1.2,62,0.00,BKN,,0.00,28.0,WeatherDisplay:10.37,2013-09-24 20:35:00,
2013-09-24 16:40:00,70.3,57.5,29.91,East,90,0.1,0.0,64,0.00,BKN,,0.00,26.0,WeatherDisplay:10.37,2013-09-24 20:40:00,
2013-09-24 16:45:00,70.1,56.9,29.91,ESE,105,0.0,3.5,63,0.00,BKN,,0.00,26.0,WeatherDisplay:10.37,2013-09-24 20:45:00,
2013-09-24 16:50:00,70.1,56.5,29.91,ESE,105,2.4,3.5,62,0.00,BKN,,0.00,25.0,WeatherDisplay:10.37,2013-09-24 20:50:00,
2013-09-24 16:55:00,70.1,56.5,29.91,ESE,105,0.7,3.5,62,0.00,BKN,,0.00,25.0,WeatherDisplay:10.37,2013-09-24 20:55:00,
2013-09-24 17:00:00,70.2,56.6,29.91,ESE,105,0.4,1.2,62,0.00,BKN,,0.00,23.0,WeatherDisplay:10.37,2013-09-24 21:00:00,
2013-09-24 17:05:00,70.2,56.6,29.91,ESE,105,0.0,0.0,62,0.00,BKN,,0.00,23.0,WeatherDisplay:10.37,2013-09-24 21:05:00,
2013-09-24 17:10:00,70.3,57.1,29.90,ESE,112,1.9,3.5,63,0.00,BKN,,0.00,23.0,WeatherDisplay:10.37,2013-09-24 21:10:00,
2013-09-24 17:15:00,70.3,57.1,29.91,ESE,114,0.4,2.3,63,0.00,BKN,,0.00,23.0,WeatherDisplay:10.37,2013-09-24 21:15:00,
2013-09-24 17:21:00,70.3,57.1,29.91,ESE,114,0.0,1.2,63,0.00,BKN,,0.00,21.0,WeatherDisplay:10.37,2013-09-24 21:21:00,
2013-09-24 17:26:00,70.3,57.5,29.91,ESE,114,0.0,0.0,64,0.00,BKN,,0.00,21.0,WeatherDisplay:10.37,2013-09-24 21:26:00,
2013-09-24 17:31:00,70.1,56.9,29.91,ESE,111,0.3,3.5,63,0.00,BKN,,0.00,21.0,WeatherDisplay:10.37,2013-09-24 21:31:00,
2013-09-24 17:36:00,70.1,56.9,29.91,ESE,111,0.7,3.0,63,0.00,BKN,,0.00,21.0,WeatherDisplay:10.37,2013-09-24 21:36:00,
2013-09-24 17:41:00,70.1,56.9,29.90,ESE,112,0.2,1.2,63,0.00,BKN,,0.00,21.0,WeatherDisplay:10.37,2013-09-24 21:41:00,
2013-09-24 17:46:00,70.3,57.1,29.91,ESE,112,0.4,1.2,63,0.00,BKN,,0.00,19.0,WeatherDisplay:10.37,2013-09-24 21:46:00,
2013-09-24 17:51:00,70.3,57.1,29.90,ESE,112,0.0,1.2,63,0.00,BKN,,0.00,19.0,WeatherDisplay:10.37,2013-09-24 21:51:00,
2013-09-24 17:56:00,70.2,57.9,29.90,ESE,109,2.2,3.5,65,0.00,BKN,,0.00,19.0,WeatherDisplay:10.37,2013-09-24 21:56:00,
2013-09-24 18:01:00,70.0,56.8,29.90,ESE,109,0.1,1.2,63,0.00,BKN,,0.00,18.0,WeatherDisplay:10.37,2013-09-24 22:01:00,
2013-09-24 18:06:00,70.0,57.3,29.90,ESE,109,1.0,3.5,64,0.00,BKN,,0.00,18.0,WeatherDisplay:10.37,2013-09-24 22:06:00,
2013-09-24 18:11:00,70.0,57.3,29.90,ESE,107,0.1,1.2,64,0.00,BKN,,0.00,18.0,WeatherDisplay:10.37,2013-09-24 22:11:00,
2013-09-24 18:16:00,70.1,57.4,29.90,ESE,107,0.1,2.3,64,0.00,BKN,,0.00,16.0,WeatherDisplay:10.37,2013-09-24 22:16:00,
2013-09-24 18:21:00,70.1,57.4,29.90,ESE,107,0.1,1.2,64,0.00,BKN,,0.00,16.0,WeatherDisplay:10.37,2013-09-24 22:21:00,
2013-09-24 18:26:00,70.0,57.3,29.90,ESE,109,1.3,3.5,64,0.00,BKN,,0.00,16.0,WeatherDisplay:10.37,2013-09-24 22:26:00,
2013-09-24 18:31:00,70.0,57.7,29.90,ESE,109,0.6,2.3,65,0.00,BKN,,0.00,14.0,WeatherDisplay:10.37,2013-09-24 22:31:00,
2013-09-24 18:36:00,70.1,58.2,29.90,ESE,109,0.0,1.2,66,0.00,BKN,,0.00,14.0,WeatherDisplay:10.37,2013-09-24 22:36:00,
2013-09-24 18:41:00,70.0,58.1,29.90,ESE,109,0.0,0.0,66,0.00,BKN,,0.00,11.0,WeatherDisplay:10.37,2013-09-24 22:41:00,
2013-09-24 18:46:00,69.8,58.8,29.90,ESE,109,0.0,1.2,68,0.00,BKN,,0.00,9.0,WeatherDisplay:10.37,2013-09-24 22:46:00,
2013-09-24 18:51:00,69.5,59.3,29.90,ESE,109,0.0,0.0,70,0.00,BKN,,0.00,11.0,WeatherDisplay:10.37,2013-09-24 22:51:00,
2013-09-24 18:56:00,68.9,58.7,29.90,ESE,109,0.0,0.0,70,0.00,BKN,,0.00,11.0,WeatherDisplay:10.37,2013-09-24 22:56:00,
2013-09-24 19:01:00,68.3,58.5,29.90,ESE,109,0.0,0.0,71,0.00,BKN,,0.00,7.0,WeatherDisplay:10.37,2013-09-24 23:01:00,
2013-09-24 19:06:00,67.6,58.6,29.90,ESE,109,0.0,0.0,73,0.00,BKN,,0.00,7.0,WeatherDisplay:10.37,2013-09-24 23:06:00,
2013-09-24 19:11:00,67.1,58.9,29.90,ESE,109,0.0,0.0,75,0.00,BKN,,0.00,7.0,WeatherDisplay:10.37,2013-09-24 23:11:00,
2013-09-24 19:16:00,66.4,58.2,29.90,ESE,109,0.0,0.0,75,0.00,BKN,,0.00,5.0,WeatherDisplay:10.37,2013-09-24 23:16:00,
2013-09-24 19:21:00,65.9,58.5,29.90,ESE,109,0.0,0.0,77,0.00,BKN,,0.00,5.0,WeatherDisplay:10.37,2013-09-24 23:21:00,
2013-09-24 19:26:00,65.3,58.6,29.90,ESE,109,0.0,0.0,79,0.00,OVC,,0.00,0.0,WeatherDisplay:10.37,2013-09-24 23:26:00,
2013-09-24 19:31:00,64.7,58.4,29.90,ESE,109,0.0,0.0,80,0.00,,,0.00,0.0,WeatherDisplay:10.37,2013-09-24 23:31:00,
2013-09-24 19:36:00,64.3,58.3,29.90,ESE,109,0.0,0.0,81,0.00,,,0.00,0.0,WeatherDisplay:10.37,2013-09-24 23:36:00,
2013-09-24 19:41:00,63.8,57.9,29.90,ESE,109,0.0,0.0,81,0.00,,,0.00,0.0,WeatherDisplay:10.37,2013-09-24 23:41:00,
2013-09-24 19:46:00,63.4,58.1,29.90,ESE,109,0.0,0.0,83,0.00,,,0.00,0.0,WeatherDisplay:10.37,2013-09-24 23:46:00,
2013-09-24 19:51:00,63.0,57.8,29.90,ESE,109,0.0,0.0,83,0.00,,,0.00,0.0,WeatherDisplay:10.37,2013-09-24 23:51:00,
2013-09-24 19:56:00,62.6,58.0,29.90,ESE,109,0.0,0.0,85,0.00,,,0.00,0.0,WeatherDisplay:10.37,2013-09-24 23:56:00,
2013-09-24 20:01:00,62.2,57.0,29.90,ESE,109,0.0,0.0,83,0.00,,,0.00,0.0,WeatherDisplay:10.37,2013-09-25 00:01:00,
2013-09-24 20:06:00,61.9,57.0,29.90,ESE,109,0.0,0.0,84,0.00,,,0.00,0.0,WeatherDisplay:10.37,2013-09-25 00:06:00,
2013-09-24 20:11:00,61.6,57.0,29.89,ESE,109,0.0,0.0,85,0.00,,,0.00,0.0,WeatherDisplay:10.37,2013-09-25 00:11:00,
2013-09-24 20:16:00,61.3,56.8,29.90,ESE,109,0.0,0.0,85,0.00,,,0.00,0.0,WeatherDisplay:10.37,2013-09-25 00:16:00,
2013-09-24 20:21:00,61.0,56.5,29.90,ESE,109,0.0,0.0,85,0.00,,,0.00,0.0,WeatherDisplay:10.37,2013-09-25 00:21:00,
2013-09-24 20:26:00,60.7,56.5,29.90,ESE,109,0.0,0.0,86,0.00,,,0.00,0.0,WeatherDisplay:10.37,2013-09-25 00:26:00,
2013-09-24 20:31:00,60.4,56.2,29.90,ESE,109,0.0,0.0,86,0.00,,,0.00,0.0,WeatherDisplay:10.37,2013-09-25 00:31:00,
2013-09-24 20:36:00,60.1,55.9,29.90,ESE,109,0.0,0.0,86,0.00,,,0.00,0.0,WeatherDisplay:10.37,2013-09-25 00:36:00,
2013-09-24 20:41:00,60.0,56.1,29.90,ESE,109,0.0,0.0,87,0.00,,,0.00,0.0,WeatherDisplay:10.37,2013-09-25 00:41:00,
2013-09-24 20:46:00,59.8,55.9,29.90,ESE,109,0.0,0.0,87,0.00,,,0.00,0.0,WeatherDisplay:10.37,2013-09-25 00:46:00,
2013-09-24 20:51:00,59.6,56.0,29.90,ESE,109,0.0,2.3,88,0.00,,,0.00,0.0,WeatherDisplay:10.37,2013-09-25 00:51:00,
2013-09-24 20:56:00,59.5,55.9,29.90,ESE,109,0.1,0.0,88,0.00,,,0.00,0.0,WeatherDisplay:10.37,2013-09-25 00:56:00,
2013-09-24 21:01:00,59.5,56.3,29.90,ESE,109,0.0,0.0,89,0.00,,,0.00,0.0,WeatherDisplay:10.37,2013-09-25 01:01:00,
2013-09-24 21:06:00,59.3,55.7,29.90,ESE,109,0.0,0.0,88,0.00,,,0.00,0.0,WeatherDisplay:10.37,2013-09-25 01:06:00,
2013-09-24 21:11:00,59.3,55.7,29.90,ESE,109,0.0,1.2,88,0.00,,,0.00,0.0,WeatherDisplay:10.37,2013-09-25 01:11:00,
2013-09-24 21:16:00,59.3,55.4,29.90,ESE,109,0.1,1.2,87,0.00,,,0.00,0.0,WeatherDisplay:10.37,2013-09-25 01:16:00,
2013-09-24 21:21:00,59.8,55.0,29.90,ESE,109,0.2,2.3,84,0.00,,,0.00,0.0,WeatherDisplay:10.37,2013-09-25 01:21:00,
2013-09-24 21:26:00,60.3,54.4,29.90,ESE,109,0.3,2.3,81,0.00,,,0.00,0.0,WeatherDisplay:10.37,2013-09-25 01:26:00,
2013-09-24 21:32:00,60.9,54.0,29.90,ESE,109,0.1,1.2,78,0.00,,,0.00,0.0,WeatherDisplay:10.37,2013-09-25 01:32:00,
2013-09-24 21:37:00,61.3,54.0,29.90,ESE,109,0.0,0.0,77,0.00,,,0.00,0.0,WeatherDisplay:10.37,2013-09-25 01:37:00,
2013-09-24 21:42:00,61.5,54.2,29.90,ESE,109,0.1,0.0,77,0.00,,,0.00,0.0,WeatherDisplay:10.37,2013-09-25 01:42:00,
2013-09-24 21:47:00,61.4,53.4,29.91,ESE,109,0.0,1.2,75,0.00,,,0.00,0.0,WeatherDisplay:10.37,2013-09-25 01:47:00,
2013-09-24 21:52:00,61.2,53.2,29.90,ESE,109,0.0,0.0,75,0.00,,,0.00,0.0,WeatherDisplay:10.37,2013-09-25 01:52:00,
2013-09-24 21:57:00,61.1,53.1,29.90,ESE,109,0.0,1.2,75,0.00,,,0.00,0.0,WeatherDisplay:10.37,2013-09-25 01:57:00,
2013-09-24 22:02:00,60.8,52.5,29.91,ESE,109,0.6,3.5,74,0.00,,,0.00,0.0,WeatherDisplay:10.37,2013-09-25 02:02:00,
2013-09-24 22:07:00,60.8,52.1,29.91,ESE,109,1.2,3.5,73,0.00,,,0.00,0.0,WeatherDisplay:10.37,2013-09-25 02:07:00,
2013-09-24 22:12:00,60.7,52.0,29.91,ESE,109,0.4,2.3,73,0.00,,,0.00,0.0,WeatherDisplay:10.37,2013-09-25 02:12:00,
2013-09-24 22:17:00,60.5,51.4,29.91,ESE,109,0.3,2.3,72,0.00,,,0.00,0.0,WeatherDisplay:10.37,2013-09-25 02:17:00,
2013-09-24 22:22:00,60.4,51.7,29.91,ESE,109,0.2,1.2,73,0.00,,,0.00,0.0,WeatherDisplay:10.37,2013-09-25 02:22:00,
2013-09-24 22:27:00,60.2,51.5,29.91,ESE,109,0.0,1.2,73,0.00,,,0.00,0.0,WeatherDisplay:10.37,2013-09-25 02:27:00,
2013-09-24 22:32:00,60.0,51.7,29.91,ESE,109,0.2,1.2,74,0.00,,,0.00,0.0,WeatherDisplay:10.37,2013-09-25 02:32:00,
2013-09-24 22:37:00,59.7,51.4,29.91,ESE,109,0.0,0.0,74,0.00,,,0.00,0.0,WeatherDisplay:10.37,2013-09-25 02:37:00,
2013-09-24 22:42:00,59.5,51.6,29.91,ESE,109,0.4,1.2,75,0.00,,,0.00,0.0,WeatherDisplay:10.37,2013-09-25 02:42:00,
2013-09-24 22:47:00,59.2,51.6,29.91,ESE,109,0.0,0.0,76,0.00,,,0.00,0.0,WeatherDisplay:10.37,2013-09-25 02:47:00,
2013-09-24 22:52:00,59.0,51.4,29.91,ESE,109,0.2,1.2,76,0.00,,,0.00,0.0,WeatherDisplay:10.37,2013-09-25 02:52:00,
2013-09-24 22:57:00,58.8,51.6,29.91,ESE,109,0.0,1.2,77,0.00,,,0.00,0.0,WeatherDisplay:10.37,2013-09-25 02:57:00,
2013-09-24 23:02:00,58.6,51.4,29.91,ESE,109,0.0,1.2,77,0.00,,,0.00,0.0,WeatherDisplay:10.37,2013-09-25 03:02:00,
2013-09-24 23:07:00,58.4,51.2,29.91,ESE,109,0.2,1.2,77,0.00,,,0.00,0.0,WeatherDisplay:10.37,2013-09-25 03:07:00,
2013-09-24 23:12:00,58.3,51.1,29.91,ESE,109,0.0,1.2,77,0.00,,,0.00,0.0,WeatherDisplay:10.37,2013-09-25 03:12:00,
2013-09-24 23:17:00,58.0,50.8,29.91,ESE,109,0.0,0.0,77,0.00,,,0.00,0.0,WeatherDisplay:10.37,2013-09-25 03:17:00,
2013-09-24 23:22:00,57.8,51.0,29.91,ESE,109,0.0,0.0,78,0.00,,,0.00,0.0,WeatherDisplay:10.37,2013-09-25 03:22:00,
2013-09-24 23:27:00,57.6,50.8,29.91,ESE,109,0.2,1.0,78,0.00,,,0.00,0.0,WeatherDisplay:10.37,2013-09-25 03:27:00,
2013-09-24 23:32:00,57.4,50.6,29.91,ESE,109,0.6,2.3,78,0.00,,,0.00,0.0,WeatherDisplay:10.37,2013-09-25 03:32:00,
2013-09-24 23:37:00,57.3,50.5,29.92,ESE,109,0.8,2.3,78,0.00,,,0.00,0.0,WeatherDisplay:10.37,2013-09-25 03:37:00,
2013-09-24 23:42:00,57.2,50.4,29.91,ESE,109,0.0,0.0,78,0.00,,,0.00,0.0,WeatherDisplay:10.37,2013-09-25 03:42:00,
2013-09-24 23:47:00,57.1,50.6,29.91,ESE,109,0.4,3.5,79,0.00,,,0.00,0.0,WeatherDisplay:10.37,2013-09-25 03:47:00,
2013-09-24 23:52:00,57.0,50.5,29.90,ESE,109,0.0,0.0,79,0.00,,,0.00,0.0,WeatherDisplay:10.37,2013-09-25 03:52:00,
2013-09-24 23:57:00,56.9,50.5,29.90,ESE,109,0.2,1.2,79,0.00,,,0.00,0.0,WeatherDisplay:10.37,2013-09-25 03:57:00,